Location: Newark
(42.9858°N, 0.6717°E)
Time: 16:39:55
(UTC+00:00)

S-56A Canister/Altair - Pass Details

Date: 29 November 2019
Orbit: 633 x 2499 km, 38.9° (Epoch: 10 December)

Event Time Altitude Azimuth Distance (km) Brightness Sun altitude
Rises 20:13:30 0° 279° (W) 4,696 12.4 -41.3°
Reaches altitude 10° 20:18:31 10° 260° (W) 3,285 11.3 -42.2°
Maximum altitude 20:22:39 15° 228° (SW) 2,557 10.4 -42.9°
Enters shadow 20:23:09 15° 223° (SW) 2,524 10.4 -43.0°
Drops below altitude 10° 20:26:08 10° 194° (SSW) 2,639 - -43.5°
Sets 20:29:29 0° 171° (S) 3,321 - -44.1°
